• In Belarus
  • List of Countries
  • For 7 days
  • Water Temperature
  • Satellite Maps
  • Weather Map
  • Weather Widgets
  • user-avatar
    Login

    Hourly Weather Salvador

    Today, 25 June, Monday

    Time Temperature Precipitation Wind Pressure Humidity
    00:00 +22°C° 0.2 mm 4 mps 759 mmHg 94%
    01:00 +22°C° 0.3 mm 4 mps 759 mmHg 95%
    02:00 +22°C° 0.3 mm 4 mps 759 mmHg 95%
    03:00 +22°C° 0.3 mm 4 mps 759 mmHg 95%
    04:00 +22°C° 0.2 mm 4 mps 759 mmHg 95%
    05:00 +21°C° 0.2 mm 4 mps 759 mmHg 95%
    06:00 +21°C° 0.2 mm 4 mps 759 mmHg 95%
    07:00 +23°C° 0 mm 4 mps 759 mmHg 88%
    08:00 +25°C° 0 mm 4 mps 759 mmHg 82%
    09:00 +27°C° 0 mm 4 mps 760 mmHg 76%
    10:00 +28°C° 0 mm 4 mps 760 mmHg 70%
    11:00 +29°C° 0 mm 4 mps 759 mmHg 64%
    12:00 +30°C° 0 mm 4 mps 759 mmHg 58%
    13:00 +29°C° 0 mm 4 mps 759 mmHg 60%
    14:00 +29°C° 0 mm 4 mps 759 mmHg 62%
    15:00 +29°C° 0 mm 4 mps 758 mmHg 64%
    16:00 +27°C° 0 mm 4 mps 758 mmHg 71%
    17:00 +25°C° 0 mm 4 mps 758 mmHg 79%
    18:00 +24°C° 0 mm 3 mps 758 mmHg 86%
    19:00 +24°C° 0 mm 3 mps 759 mmHg 89%
    20:00 +22°C° 0 mm 3 mps 759 mmHg 91%
    21:00 +22°C° 0 mm 3 mps 759 mmHg 93%
    22:00 +22°C° 0 mm 3 mps 759 mmHg 93%
    23:00 +22°C° 0 mm 3 mps 759 mmHg 93%

    Tomorrow, 26 June, Tuesday

    Time Temperature Precipitation Wind Pressure Humidity
    00:00 +22°C° 0 mm 3 mps 759 mmHg 93%
    01:00 +21°C° 0 mm 3 mps 758 mmHg 94%
    02:00 +21°C° 0 mm 3 mps 758 mmHg 94%
    03:00 +21°C° 0 mm 3 mps 757 mmHg 94%
    04:00 +21°C° 0 mm 3 mps 758 mmHg 94%
    05:00 +21°C° 0 mm 3 mps 758 mmHg 94%
    06:00 +21°C° 0 mm 3 mps 758 mmHg 94%
    07:00 +24°C° 0.1 mm 3 mps 758 mmHg 88%
    08:00 +25°C° 0.1 mm 3 mps 759 mmHg 83%
    09:00 +27°C° 0.1 mm 3 mps 760 mmHg 77%
    10:00 +28°C° 0.2 mm 3 mps 759 mmHg 73%
    11:00 +28°C° 0.2 mm 4 mps 759 mmHg 70%
    12:00 +29°C° 0.2 mm 4 mps 759 mmHg 66%
    13:00 +29°C° 0.1 mm 4 mps 758 mmHg 67%
    14:00 +29°C° 0.1 mm 4 mps 758 mmHg 67%
    15:00 +29°C° 0.1 mm 4 mps 757 mmHg 68%
    16:00 +27°C° 0 mm 3 mps 757 mmHg 74%
    17:00 +26°C° 0 mm 3 mps 758 mmHg 80%
    18:00 +24°C° 0 mm 3 mps 758 mmHg 86%
    19:00 +24°C° 0 mm 3 mps 758 mmHg 88%
    20:00 +22°C° 0 mm 3 mps 759 mmHg 90%
    21:00 +22°C° 0 mm 3 mps 759 mmHg 92%
    22:00 +22°C° 0 mm 3 mps 759 mmHg 92%
    23:00 +22°C° 0 mm 3 mps 759 mmHg 93%

    Day after tomorrow, 27 June, Wednesday

    Time Temperature Precipitation Wind Pressure Humidity
    00:00 +21°C° 0 mm 3 mps 759 mmHg 94%
    01:00 +21°C° 0 mm 2 mps 759 mmHg 94%
    02:00 +21°C° 0 mm 2 mps 758 mmHg 94%
    03:00 +21°C° 0 mm 2 mps 758 mmHg 95%
    04:00 +21°C° 0 mm 2 mps 758 mmHg 95%
    05:00 +21°C° 0 mm 2 mps 758 mmHg 96%
    06:00 +21°C° 0 mm 2 mps 759 mmHg 96%
    07:00 +23°C° 0.3 mm 2 mps 759 mmHg 90%
    08:00 +25°C° 0.3 mm 2 mps 760 mmHg 83%
    09:00 +27°C° 0.3 mm 2 mps 760 mmHg 76%
    10:00 +28°C° 0.4 mm 3 mps 760 mmHg 75%
    11:00 +28°C° 0.4 mm 3 mps 760 mmHg 74%
    12:00 +28°C° 0.4 mm 3 mps 759 mmHg 73%
    13:00 +28°C° 0.2 mm 3 mps 759 mmHg 74%
    14:00 +28°C° 0.2 mm 3 mps 758 mmHg 76%
    15:00 +27°C° 0.2 mm 3 mps 758 mmHg 77%
    16:00 +26°C° 0 mm 3 mps 758 mmHg 82%
    17:00 +25°C° 0 mm 2 mps 758 mmHg 86%
    18:00 +24°C° 0 mm 2 mps 758 mmHg 91%
    19:00 +24°C° 0.1 mm 2 mps 759 mmHg 92%
    20:00 +23°C° 0.1 mm 2 mps 759 mmHg 93%
    21:00 +23°C° 0.1 mm 2 mps 760 mmHg 94%
    22:00 +23°C° 0.2 mm 2 mps 759 mmHg 95%
    23:00 +22°C° 0.2 mm 3 mps 759 mmHg 95%

    28 June, Thursday

    Time Temperature Precipitation Wind Pressure Humidity
    00:00 +22°C° 0.2 mm 3 mps 759 mmHg 96%
    01:00 +22°C° 0.4 mm 3 mps 759 mmHg 96%
    02:00 +22°C° 0.4 mm 3 mps 759 mmHg 96%
    03:00 +21°C° 0.4 mm 3 mps 758 mmHg 97%
    04:00 +21°C° 0.8 mm 3 mps 759 mmHg 97%
    05:00 +21°C° 0.8 mm 3 mps 759 mmHg 97%
    06:00 +21°C° 0.8 mm 3 mps 759 mmHg 97%
    07:00 +22°C° 1 mm 3 mps 760 mmHg 94%
    08:00 +24°C° 1 mm 3 mps 760 mmHg 92%
    09:00 +25°C° 1 mm 4 mps 761 mmHg 89%
    10:00 +26°C° 0.6 mm 4 mps 760 mmHg 88%
    11:00 +26°C° 0.6 mm 4 mps 760 mmHg 88%
    12:00 +26°C° 0.6 mm 4 mps 759 mmHg 87%
    13:00 +27°C° 0.1 mm 4 mps 759 mmHg 83%
    14:00 +27°C° 0.1 mm 4 mps 759 mmHg 79%
    15:00 +28°C° 0.1 mm 4 mps 758 mmHg 74%
    16:00 +27°C° 0 mm 4 mps 758 mmHg 80%
    17:00 +25°C° 0 mm 4 mps 758 mmHg 85%
    18:00 +23°C° 0 mm 4 mps 759 mmHg 90%
    19:00 +23°C° 0.1 mm 4 mps 759 mmHg 91%
    20:00 +23°C° 0.1 mm 4 mps 759 mmHg 93%
    21:00 +22°C° 0.1 mm 4 mps 759 mmHg 94%
    22:00 +22°C° 0.1 mm 4 mps 759 mmHg 94%
    23:00 +22°C° 0.1 mm 4 mps 759 mmHg 94%

    29 June, Friday

    Time Temperature Precipitation Wind Pressure Humidity
    00:00 +22°C° 0.1 mm 4 mps 759 mmHg 94%
    01:00 +22°C° 0.2 mm 4 mps 759 mmHg 94%
    02:00 +22°C° 0.2 mm 4 mps 759 mmHg 95%
    03:00 +22°C° 0.2 mm 4 mps 758 mmHg 95%
    04:00 +22°C° 0.2 mm 4 mps 758 mmHg 96%
    05:00 +22°C° 0.2 mm 4 mps 759 mmHg 96%
    06:00 +21°C° 0.2 mm 3 mps 759 mmHg 96%
    07:00 +24°C° 0.5 mm 3 mps 759 mmHg 94%
    08:00 +25°C° 0.5 mm 4 mps 760 mmHg 91%
    09:00 +26°C° 0.5 mm 4 mps 760 mmHg 89%
    10:00 +26°C° 0.6 mm 4 mps 760 mmHg 89%
    11:00 +26°C° 0.6 mm 4 mps 760 mmHg 89%
    12:00 +26°C° 0.6 mm 4 mps 759 mmHg 89%
    13:00 +26°C° 0.2 mm 4 mps 759 mmHg 85%
    14:00 +27°C° 0.2 mm 4 mps 758 mmHg 81%
    15:00 +27°C° 0.2 mm 4 mps 758 mmHg 77%
    16:00 +26°C° 0.1 mm 4 mps 758 mmHg 82%
    17:00 +25°C° 0.1 mm 4 mps 758 mmHg 86%
    18:00 +23°C° 0.1 mm 4 mps 759 mmHg 91%
    19:00 +23°C° 0.1 mm 4 mps 759 mmHg 92%
    20:00 +22°C° 0.1 mm 4 mps 759 mmHg 93%
    21:00 +22°C° 0.1 mm 4 mps 759 mmHg 95%
    22:00 +22°C° 0.1 mm 4 mps 759 mmHg 95%
    23:00 +22°C° 0.1 mm 4 mps 759 mmHg 95%

    30 June, Saturday

    Time Temperature Precipitation Wind Pressure Humidity
    00:00 +22°C° 0.1 mm 3 mps 758 mmHg 96%
    01:00 +22°C° 0.3 mm 3 mps 758 mmHg 96%
    02:00 +22°C° 0.3 mm 3 mps 758 mmHg 96%
    03:00 +21°C° 0.3 mm 2 mps 757 mmHg 97%
    04:00 +21°C° 0.5 mm 2 mps 757 mmHg 97%
    05:00 +21°C° 0.5 mm 2 mps 758 mmHg 97%
    06:00 +21°C° 0.5 mm 2 mps 758 mmHg 98%
    07:00 +23°C° 0.5 mm 2 mps 758 mmHg 96%
    08:00 +24°C° 0.5 mm 2 mps 758 mmHg 94%
    09:00 +25°C° 0.5 mm 2 mps 759 mmHg 92%
    10:00 +26°C° 0.4 mm 2 mps 758 mmHg 87%
    11:00 +27°C° 0.4 mm 2 mps 758 mmHg 83%
    12:00 +28°C° 0.4 mm 2 mps 758 mmHg 79%
    13:00 +27°C° 0.3 mm 2 mps 757 mmHg 81%
    14:00 +27°C° 0.3 mm 2 mps 757 mmHg 83%
    15:00 +27°C° 0.3 mm 2 mps 756 mmHg 85%
    16:00 +26°C° 0.1 mm 2 mps 756 mmHg 88%
    17:00 +25°C° 0.1 mm 2 mps 757 mmHg 91%
    18:00 +24°C° 0.1 mm 2 mps 757 mmHg 94%
    19:00 +24°C° 0.1 mm 2 mps 757 mmHg 95%
    20:00 +23°C° 0.1 mm 2 mps 757 mmHg 95%
    21:00 +23°C° 0.1 mm 2 mps 758 mmHg 96%
    22:00 +23°C° 0.4 mm 2 mps 758 mmHg 96%
    23:00 +23°C° 0.4 mm 1 mps 757 mmHg 97%
    Show more